EW5004 Weather Reports


Display with metric or nautical units.
time (UTC)temp
F
wind
direction
speed
MPH
gust
MPH
rain 1hr
in
rain 24hr
in
rain mn
in
humidity
%
barometer
mb
20240720210059 78 338 1.0 5.0 0.00 0.00 0.00 53 1018.0
20240720204613 77 64 2.0 5.0 0.00 0.00 0.00 55 1018.1
20240720203055 76 24 3.0 9.0 0.00 0.00 0.00 57 1018.1
20240720201552 76 20 5.0 9.0 0.00 0.00 0.00 58 1018.3
20240720200059 76 327 4.0 9.0 0.00 0.00 0.00 59 1018.3
20240720194607 76 136 4.0 9.0 0.00 0.00 0.00 57 1018.4
20240720193049 76 5 1.0 9.0 0.00 0.00 0.00 61 1018.4
20240720191603 76 31 4.0 8.0 0.00 0.00 0.00 59 1018.6
20240720190050 76 349 3.0 9.0 0.00 0.00 0.00 58 1018.5
20240720184547 76 336 3.0 9.0 0.00 0.00 0.00 58 1018.5
20240720183047 76 90 4.0 9.0 0.00 0.00 0.00 55 1018.6
20240720181545 77 42 3.0 8.0 0.00 0.00 0.00 57 1018.7
20240720180045 75 99 4.0 10.0 0.00 0.00 0.00 58 1018.8
20240720174545 76 74 5.0 9.0 0.00 0.00 0.00 57 1018.8
20240720173043 76 360 2.0 8.0 0.00 0.00 0.00 59 1018.8
20240720171541 75 101 4.0 8.0 0.00 0.00 0.00 61 1018.8
20240720170045 74 153 4.0 9.0 0.00 0.00 0.00 63 1019.0
20240720164536 74 133 2.0 7.0 0.00 0.00 0.00 66 1019.0
20240720163036 74 349 4.0 9.0 0.00 0.00 0.00 64 1019.2
20240720161533 73 77 4.0 10.0 0.00 0.00 0.00 64 1019.2
20240720160034 73 57 4.0 7.0 0.00 0.00 0.00 63 1019.3
20240720154535 73 83 5.0 8.0 0.00 0.00 0.00 63 1019.2
20240720153029 72 163 4.0 9.0 0.00 0.00 0.00 62 1019.3
20240720151530 72 120 2.0 8.0 0.00 0.00 0.00 65 1019.2
20240720150026 72 153 2.0 6.0 0.00 0.00 0.00 65 1019.1
20240720144525 71 115 2.0 7.0 0.00 0.00 0.00 70 1019.2
20240720143028 71 33 3.0 7.0 0.00 0.00 0.00 73 1019.0
20240720141530 71 36 3.0 6.0 0.00 0.00 0.00 74 1019.1
20240720140018 70 82 1.0 6.0 0.00 0.00 0.00 75 1019.1
20240720134517 69 27 2.0 4.0 0.00 0.00 0.00 80 1019.1
20240720133014 68 137 2.0 5.0 0.00 0.00 0.00 85 1019.2
20240720131509 66 173 0.0 2.0 0.00 0.00 0.00 90 1019.3
20240720130007 64 212 0.0 0.0 0.00 0.00 0.00 95 1019.2
20240720124600 62 238 0.0 0.0 0.00 0.00 0.00 97 1019.4
20240720123102 60 239 0.0 0.0 0.00 0.00 0.00 98 1019.4
20240720121553 59 240 0.0 0.0 0.00 0.00 0.00 98 1019.4
20240720120049 58 252 0.0 0.0 0.00 0.00 0.00 98 1019.4
20240720114550 56 286 0.0 0.0 0.00 0.00 0.00 98 1019.5
20240720113049 55 286 0.0 0.0 0.00 0.00 0.00 97 1019.3
20240720111545 54 286 0.0 0.0 0.00 0.00 0.00 97 1019.2
20240720110045 53 286 0.0 0.0 0.00 0.00 0.00 97 1019.2
20240720104545 52 286 0.0 0.0 0.00 0.00 0.00 97 1019.1
20240720103052 52 286 0.0 0.0 0.00 0.00 0.00 97 1019.0
20240720101544 52 286 0.0 0.0 0.00 0.00 0.00 97 1019.0
20240720100043 52 286 0.0 0.0 0.00 0.00 0.00 97 1018.9
20240720094543 52 286 0.0 0.0 0.00 0.00 0.00 97 1018.9
20240720093045 52 287 0.0 0.0 0.00 0.00 0.00 97 1018.9
20240720091543 52 294 0.0 0.0 0.00 0.00 0.00 97 1019.0
20240720090041 52 294 0.0 0.0 0.00 0.00 0.00 97 1019.1
20240720084539 52 294 0.0 0.0 0.00 0.00 0.00 96 1019.1
20240720083039 53 294 0.0 0.0 0.00 0.00 0.00 96 1019.0
20240720081536 53 294 0.0 0.0 0.00 0.00 0.00 96 1018.7
20240720080035 53 294 0.0 0.0 0.00 0.00 0.00 96 1018.6
20240720074534 54 294 0.0 0.0 0.00 0.00 0.00 96 1018.8
20240720073036 54 294 0.0 0.0 0.00 0.00 0.00 96 1018.8
20240720071533 54 294 0.0 0.0 0.00 0.00 0.00 96 1018.9
20240720070032 54 294 0.0 0.0 0.00 0.00 0.00 96 1019.0
20240720064528 54 296 0.0 0.0 0.00 0.00 0.00 96 1019.1
20240720063026 54 296 0.0 0.0 0.00 0.00 0.00 96 1019.3
20240720061526 55 296 0.0 0.0 0.00 0.00 0.00 96 1019.2
20240720060025 55 77 0.0 0.0 0.00 0.00 0.00 96 1019.3
20240720054523 55 77 0.0 0.0 0.00 0.00 0.00 95 1019.5
20240720053022 55 77 0.0 0.0 0.00 0.00 0.00 96 1019.6
20240720051520 55 77 0.0 0.0 0.00 0.00 0.00 95 1019.7
20240720050022 55 76 0.0 0.0 0.00 0.00 0.00 95 1019.7
20240720044515 56 76 0.0 0.0 0.00 0.00 0.00 95 1019.8
20240720043013 56 76 0.0 0.0 0.00 0.00 0.00 95 1020.0
20240720041515 57 77 0.0 0.0 0.00 0.00 0.00 95 1019.9
20240720040008 57 76 0.0 0.0 0.00 0.00 0.00 95 1020.0
20240720034508 57 76 0.0 0.0 0.00 0.00 0.00 94 1020.0
20240720033008 58 76 0.0 0.0 0.00 0.00 0.00 94 1019.9
20240720031507 58 76 0.0 0.0 0.00 0.00 0.00 94 1019.8
20240720030006 58 76 0.0 0.0 0.00 0.00 0.00 94 1020.0
20240720024506 59 76 0.0 0.0 0.00 0.00 0.00 93 1020.0
20240720023008 59 76 0.0 0.0 0.00 0.00 0.00 93 1019.9
20240720021507 60 76 0.0 0.0 0.00 0.00 0.00 92 1019.9
20240720020010 60 76 0.0 0.0 0.00 0.00 0.00 91 1019.9
20240720014504 61 76 0.0 0.0 0.00 0.00 0.00 90 1019.9
20240720013008 62 76 0.0 0.0 0.00 0.00 0.00 88 1019.8
20240720011503 63 76 0.0 0.0 0.00 0.00 0.00 87 1019.6
20240720010003 65 76 0.0 0.0 0.00 0.00 0.00 84 1019.5
20240720004502 67 76 0.0 0.0 0.00 0.00 0.00 82 1019.5
20240720003002 68 76 0.0 0.0 0.00 0.00 0.00 76 1019.7
20240720001502 69 76 0.0 0.0 0.00 0.00 0.00 72 1019.6
20240720000001 70 76 0.0 3.0 0.00 0.00 0.00 71 1019.6
20240719234502 70 54 2.0 4.0 0.00 0.00 0.00 72 1019.7
20240719233104 70 93 2.0 5.0 0.00 0.00 0.00 72 1019.8
20240719231608 70 76 2.0 5.0 0.00 0.00 0.00 72 1019.7
20240719230059 70 69 2.0 4.0 0.00 0.00 0.00 74 1019.8
20240719224602 71 76 2.0 6.0 0.00 0.00 0.00 72 1019.7
20240719223059 70 136 2.0 7.0 0.00 0.00 0.00 73 1019.8
20240719221559 71 14 3.0 7.0 0.00 0.00 0.00 72 1019.9
20240719220057 70 83 3.0 8.0 0.00 0.00 0.00 74 1019.9
20240719214601 70 74 4.0 8.0 0.00 0.00 0.00 73 1019.9
20240719213057 72 5 3.0 9.0 0.00 0.00 0.00 72 1019.9
20240719211556 71 360 2.0 4.0 0.00 0.00 0.00 73 1020.2